Simultaneous Nadir Overpasses (SNOs) Predictions

Prediction of SNOs between GOES-15 and METOP-A Satellite Orbit:

Table of predicted SNOs for the next 14.0 days since TLE Epoch: 11/9/2019
Index Date Time (GOES-15) GOES-15 Lat,Lon METOP-A Lat,Lon Distance(km) Time Diff (sec)
1 11/09/2019 17:20:10 -0.26,-128.51 -0.85,-125.74 315.17 80
2 11/11/2019 05:39:11 0.26,-128.51 -0.16,-130.37 211.26 80
3 11/12/2019 05:15:52 0.25,-128.51 0.92,-125.38 356.26 80
4 11/13/2019 17:34:45 -0.25,-128.51 0.04,-129.98 166.80 80
5 11/14/2019 17:16:45 -0.25,-128.51 -1.04,-125.00 400.67 80
6 11/16/2019 05:35:47 0.24,-128.51 0.03,-129.62 126.79 80
7 11/17/2019 05:12:27 0.24,-128.50 1.11,-124.64 439.79 80
8 11/18/2019 17:31:19 -0.23,-128.48 -0.09,-129.23 85.00 80
9 11/19/2019 17:13:20 -0.23,-128.47 -1.17,-124.24 481.65 80
10 11/21/2019 05:32:21 0.23,-128.46 0.16,-128.87 46.40 80




NCC Satellite Simultaneous Nadir Overpasses (SNOs) Prediction Service
